�������l�o���
Date,Time,MP-1(��Sv/h),MP-2(��Sv/h),MP-3(��Sv/h),MP-4(��Sv/h),MP-5(��Sv/h),MP-6(��Sv/h),MP-7(��Sv/h),MP-8(��Sv/h),����,����(m/s),���J
2022/11/04,00:00,0.592,0.844,0.533,1.062,0.749,0.341,0.598,0.563,��,8.1,��
2022/11/04,00:10,0.591,0.843,0.532,1.063,0.748,0.340,0.597,0.561,��,6.6,��
2022/11/04,00:20,0.590,0.842,0.532,1.064,0.747,0.340,0.596,0.562,��,6.1,��
2022/11/04,00:30,0.590,0.842,0.531,1.061,0.745,0.340,0.596,0.563,��,6.5,��
2022/11/04,00:40,0.588,0.842,0.531,1.061,0.747,0.341,0.596,0.561,��,7.0,��
2022/11/04,00:50,0.591,0.842,0.533,1.061,0.750,0.341,0.596,0.562,��,8.3,��
2022/11/04,01:00,0.587,0.841,0.533,1.065,0.747,0.340,0.596,0.564,���k��,6.2,��
2022/11/04,01:10,0.590,0.841,0.532,1.063,0.745,0.341,0.598,0.563,���k��,8.4,��
2022/11/04,01:20,0.590,0.840,0.532,1.063,0.749,0.340,0.595,0.563,���k��,7.9,��
2022/11/04,01:30,0.590,0.841,0.532,1.065,0.748,0.341,0.596,0.561,���k��,8.3,��
2022/11/04,01:40,0.590,0.842,0.531,1.063,0.748,0.339,0.597,0.563,���k��,8.5,��
2022/11/04,01:50,0.589,0.841,0.531,1.063,0.750,0.340,0.598,0.563,���k��,7.9,��
2022/11/04,02:00,0.590,0.842,0.532,1.063,0.748,0.341,0.597,0.563,���k��,7.3,��
2022/11/04,02:10,0.590,0.842,0.532,1.062,0.747,0.338,0.596,0.563,�k��,6.5,��
2022/11/04,02:20,0.591,0.844,0.532,1.063,0.747,0.340,0.595,0.562,���k��,7.6,��
2022/11/04,02:30,0.591,0.844,0.533,1.062,0.749,0.340,0.596,0.563,�k��,8.5,��
2022/11/04,02:40,0.589,0.845,0.532,1.063,0.748,0.340,0.596,0.563,���k��,8.2,��
2022/11/04,02:50,0.590,0.843,0.532,1.063,0.748,0.340,0.597,0.563,�쐼,2.8,��
2022/11/04,03:00,0.589,0.841,0.533,1.064,0.748,0.340,0.596,0.562,��,4.3,��
2022/11/04,03:10,0.591,0.846,0.532,1.062,0.749,0.341,0.596,0.563,���쐼,3.2,��
2022/11/04,03:20,0.590,0.841,0.531,1.060,0.749,0.341,0.597,0.562,���쐼,3.7,��
2022/11/04,03:30,0.589,0.842,0.531,1.063,0.748,0.341,0.599,0.564,���쐼,2.6,��
2022/11/04,03:40,0.590,0.841,0.532,1.066,0.747,0.340,0.597,0.561,�쐼,1.5,��
2022/11/04,03:50,0.591,0.842,0.533,1.063,0.748,0.340,0.597,0.562,��쐼,1.7,��
2022/11/04,04:00,0.589,0.843,0.532,1.062,0.749,0.340,0.598,0.564,���쐼,1.1,��
2022/11/04,04:10,0.591,0.843,0.533,1.062,0.748,0.341,0.598,0.562,��,0.9,��
2022/11/04,04:20,0.590,0.843,0.532,1.062,0.748,0.341,0.596,0.563,�k�k��,1.7,��
2022/11/04,04:30,0.590,0.841,0.531,1.062,0.749,0.340,0.599,0.562,�k,5.2,��
2022/11/04,04:40,0.590,0.843,0.533,1.062,0.749,0.339,0.599,0.562,�k�k��,6.6,��
2022/11/04,04:50,0.589,0.842,0.532,1.061,0.748,0.340,0.596,0.563,�k�k��,9.3,��
2022/11/04,05:00,0.589,0.841,0.530,1.061,0.748,0.339,0.598,0.563,�k,9.2,��
2022/11/04,05:10,0.588,0.842,0.533,1.064,0.750,0.340,0.595,0.563,�k,7.6,��
2022/11/04,05:20,0.590,0.843,0.531,1.063,0.745,0.339,0.596,0.562,�k,8.2,��
2022/11/04,05:30,0.589,0.843,0.531,1.060,0.745,0.338,0.595,0.563,�k,11.0,��
2022/11/04,05:40,0.587,0.841,0.533,1.061,0.745,0.338,0.594,0.564,�k,8.6,��
2022/11/04,05:50,0.588,0.839,0.529,1.063,0.744,0.339,0.594,0.562,�k,9.1,��
2022/11/04,06:00,0.589,0.841,0.531,1.064,0.747,0.340,0.592,0.563,�k,9.7,��
2022/11/04,06:10,0.589,0.840,0.530,1.063,0.745,0.339,0.594,0.563,�k,9.5,��
2022/11/04,06:20,0.587,0.838,0.531,1.063,0.745,0.338,0.593,0.561,�k,9.0,��
2022/11/04,06:30,0.589,0.840,0.531,1.063,0.746,0.339,0.594,0.562,�k,8.8,��
2022/11/04,06:40,0.588,0.841,0.530,1.062,0.747,0.339,0.594,0.562,�k,9.2,��
2022/11/04,06:50,0.587,0.840,0.530,1.062,0.747,0.339,0.594,0.564,�k,8.6,��
2022/11/04,07:00,0.587,0.842,0.530,1.063,0.746,0.339,0.594,0.561,�k,8.2,��
2022/11/04,07:10,0.586,0.842,0.531,1.062,0.745,0.339,0.592,0.562,�k�k��,9.2,��
2022/11/04,07:20,0.590,0.842,0.531,1.061,0.748,0.339,0.595,0.562,�k�k��,7.9,��
2022/11/04,07:30,0.588,0.841,0.529,1.063,0.748,0.339,0.594,0.562,�k�k��,6.0,��
2022/11/04,07:40,0.587,0.842,0.530,1.063,0.748,0.339,0.592,0.561,�k�k��,5.4,��
2022/11/04,07:50,0.587,0.840,0.529,1.062,0.749,0.338,0.593,0.561,�k�k��,5.3,��
2022/11/04,08:00,0.591,0.843,0.529,1.066,0.747,0.339,0.593,0.561,�k�k��,5.4,��
2022/11/04,08:10,0.589,0.842,0.529,1.061,0.748,0.338,0.593,0.562,�k�k��,3.7,��
2022/11/04,08:20,0.587,0.840,0.529,1.063,0.748,0.339,0.593,0.561,�k�k��,5.6,��
2022/11/04,08:30,0.587,0.842,0.532,1.062,0.747,0.339,0.592,0.561,�k�k��,5.3,��
2022/11/04,08:40,0.587,0.842,0.530,1.065,0.749,0.338,0.593,0.563,�k�k��,5.6,��
2022/11/04,08:50,0.589,0.842,0.529,1.064,0.748,0.339,0.594,0.561,�k�k��,5.7,��
2022/11/04,09:00,0.588,0.842,0.530,1.063,0.747,0.339,0.592,0.561,�k�k��,6.5,��
2022/11/04,09:10,0.588,0.841,0.529,1.063,0.750,0.340,0.593,0.561,�k�k��,6.2,��
2022/11/04,09:20,0.589,0.842,0.530,1.064,0.747,0.338,0.593,0.563,�k�k��,7.8,��
2022/11/04,09:30,0.588,0.842,0.530,1.062,0.748,0.339,0.594,0.562,�k�k��,8.0,��
2022/11/04,09:40,0.588,0.840,0.530,1.062,0.748,0.339,0.593,0.561,�k�k��,6.7,��
2022/11/04,09:50,0.589,0.842,0.531,1.065,0.750,0.339,0.593,0.562,�k�k��,5.7,��
2022/11/04,10:00,0.587,0.840,0.532,1.064,0.746,0.339,0.594,0.562,�k�k��,4.5,��
2022/11/04,10:10,0.588,0.843,0.533,1.064,0.747,0.340,0.593,0.564,�k��,4.7,��
2022/11/04,10:20,0.587,0.843,0.530,1.063,0.750,0.340,0.593,0.562,�k��,5.6,��
2022/11/04,10:30,0.587,0.842,0.530,1.066,0.749,0.339,0.595,0.562,�k��,5.1,��
2022/11/04,10:40,0.587,0.842,0.530,1.063,0.748,0.340,0.595,0.562,�k�k��,4.7,��
2022/11/04,10:50,0.588,0.843,0.532,1.065,0.750,0.339,0.594,0.563,�k��,4.2,��
2022/11/04,11:00,0.590,0.843,0.530,1.064,0.747,0.339,0.595,0.563,�k��,3.6,��
2022/11/04,11:10,0.590,0.842,0.532,1.063,0.748,0.339,0.595,0.562,�k��,3.8,��
2022/11/04,11:20,0.591,0.841,0.532,1.063,0.747,0.338,0.593,0.562,�k��,5.7,��
2022/11/04,11:30,0.589,0.842,0.531,1.065,0.747,0.339,0.594,0.562,�k��,7.0,��
2022/11/04,11:40,0.588,0.839,0.531,1.067,0.747,0.339,0.594,0.563,�k�k��,5.4,��
2022/11/04,11:50,0.588,0.842,0.530,1.067,0.747,0.340,0.596,0.563,�k�k��,5.9,��
2022/11/04,12:00,0.589,0.840,0.530,1.064,0.746,0.339,0.595,0.561,�k�k��,5.8,��
2022/11/04,12:10,0.588,0.839,0.530,1.064,0.748,0.340,0.595,0.561,�k,4.6,��
2022/11/04,12:20,0.588,0.838,0.528,1.066,0.747,0.339,0.594,0.561,�k,4.2,��
2022/11/04,12:30,0.588,0.840,0.529,1.065,0.747,0.340,0.596,0.560,�k�k��,4.5,��
2022/11/04,12:40,0.589,0.841,0.529,1.065,0.746,0.337,0.594,0.560,�k,3.8,��
2022/11/04,12:50,0.588,0.840,0.530,1.064,0.748,0.338,0.596,0.561,�k�k��,3.7,��
2022/11/04,13:00,0.589,0.839,0.528,1.066,0.745,0.338,0.594,0.560,�k,4.5,��
2022/11/04,13:10,0.588,0.840,0.528,1.066,0.748,0.339,0.594,0.561,�k,3.1,��
2022/11/04,13:20,0.589,0.839,0.530,1.065,0.746,0.339,0.594,0.560,�k�k��,2.3,��
2022/11/04,13:30,0.587,0.839,0.527,1.067,0.747,0.339,0.594,0.559,�k,1.5,��
2022/11/04,13:40,0.589,0.839,0.531,1.066,0.748,0.339,0.594,0.562,�k��,1.7,��
2022/11/04,13:50,0.587,0.839,0.530,1.062,0.746,0.340,0.594,0.561,���k��,3.2,��
2022/11/04,14:00,0.589,0.842,0.531,1.064,0.747,0.341,0.593,0.560,�k��,4.6,��
2022/11/04,14:10,0.587,0.839,0.530,1.065,0.746,0.339,0.594,0.560,�k��,6.7,�L
2022/11/04,14:20,0.586,0.842,0.530,1.065,0.747,0.339,0.596,0.561,�k��,6.9,��
2022/11/04,14:30,0.588,0.838,0.529,1.064,0.747,0.338,0.596,0.561,�k��,5.1,�L
2022/11/04,14:40,0.587,0.840,0.529,1.066,0.746,0.339,0.594,0.560,�k��,4.9,�L
2022/11/04,14:50,0.586,0.842,0.531,1.066,0.749,0.340,0.595,0.560,�k��,5.3,�L
2022/11/04,15:00,0.588,0.838,0.532,1.066,0.748,0.338,0.594,0.561,�k��,5.6,��
2022/11/04,15:10,0.587,0.842,0.532,1.066,0.749,0.338,0.596,0.561,�k��,7.0,��
2022/11/04,15:20,0.591,0.844,0.530,1.067,0.749,0.340,0.594,0.562,�k��,8.9,��
2022/11/04,15:30,0.590,0.845,0.533,1.065,0.749,0.340,0.594,0.560,�k��,5.8,��
2022/11/04,15:40,0.589,0.844,0.532,1.066,0.748,0.341,0.595,0.562,�k��,6.3,��
2022/11/04,15:50,0.589,0.845,0.532,1.063,0.747,0.340,0.597,0.562,�k��,6.2,��
2022/11/04,16:00,0.590,0.845,0.532,1.067,0.749,0.340,0.595,0.563,�k��,4.8,��
2022/11/04,16:10,0.591,0.845,0.533,1.067,0.748,0.340,0.596,0.563,�k��,5.4,��
2022/11/04,16:20,0.592,0.845,0.532,1.065,0.747,0.340,0.595,0.563,�k��,5.9,��
2022/11/04,16:30,0.591,0.845,0.531,1.066,0.748,0.340,0.595,0.563,�k��,4.4,��
2022/11/04,16:40,0.589,0.844,0.534,1.064,0.747,0.340,0.596,0.563,�k��,4.7,��
2022/11/04,16:50,0.589,0.843,0.531,1.067,0.749,0.339,0.595,0.564,�k��,4.6,��
2022/11/04,17:00,0.589,0.845,0.530,1.066,0.748,0.340,0.595,0.562,���k��,4.8,��
2022/11/04,17:10,0.590,0.844,0.531,1.067,0.749,0.340,0.596,0.563,�k��,5.0,��
2022/11/04,17:20,0.589,0.845,0.531,1.067,0.751,0.340,0.594,0.561,�k��,3.9,��
2022/11/04,17:30,0.588,0.845,0.531,1.065,0.750,0.338,0.593,0.563,�k��,4.7,��
2022/11/04,17:40,0.589,0.845,0.530,1.065,0.749,0.338,0.595,0.561,�k��,6.0,��
2022/11/04,17:50,0.588,0.844,0.532,1.067,0.748,0.339,0.596,0.563,�k��,6.2,��
2022/11/04,18:00,0.588,0.843,0.531,1.067,0.749,0.340,0.595,0.563,�k�k��,7.0,��
2022/11/04,18:10,0.589,0.845,0.532,1.066,0.751,0.339,0.595,0.564,�k�k��,6.6,��
2022/11/04,18:20,0.586,0.845,0.532,1.067,0.750,0.338,0.595,0.563,�k��,4.2,��
2022/11/04,18:30,0.589,0.845,0.531,1.064,0.749,0.340,0.597,0.561,�k�k��,3.6,��
2022/11/04,18:40,0.588,0.843,0.530,1.066,0.749,0.339,0.595,0.561,�k�k��,3.5,��
2022/11/04,18:50,0.588,0.844,0.529,1.066,0.748,0.338,0.594,0.561,�k�k��,2.9,��
2022/11/04,19:00,0.589,0.844,0.529,1.066,0.749,0.339,0.595,0.561,�k�k��,3.4,��
2022/11/04,19:10,0.588,0.843,0.531,1.065,0.748,0.340,0.595,0.561,�k�k��,3.6,��
2022/11/04,19:20,0.587,0.844,0.529,1.067,0.750,0.339,0.596,0.563,�k�k��,5.5,��
2022/11/04,19:30,0.588,0.844,0.530,1.065,0.749,0.339,0.597,0.563,�k�k��,5.4,��
2022/11/04,19:40,0.587,0.844,0.530,1.065,0.749,0.340,0.596,0.562,�k�k��,4.7,��
2022/11/04,19:50,0.587,0.844,0.531,1.065,0.748,0.339,0.594,0.560,�k,2.8,��
2022/11/04,20:00,0.586,0.844,0.531,1.065,0.749,0.339,0.597,0.561,�k,2.5,��
2022/11/04,20:10,0.587,0.843,0.531,1.066,0.748,0.339,0.597,0.560,�k�k��,2.3,��
2022/11/04,20:20,0.587,0.843,0.531,1.068,0.749,0.339,0.596,0.560,�k�k��,1.5,��
2022/11/04,20:30,0.587,0.845,0.531,1.064,0.749,0.338,0.595,0.562,�k��,1.5,��
2022/11/04,20:40,0.586,0.844,0.530,1.064,0.748,0.338,0.596,0.562,���k��,1.2,��
2022/11/04,20:50,0.586,0.846,0.528,1.065,0.749,0.339,0.596,0.560,���k��,0.8,��
2022/11/04,21:00,0.586,0.843,0.529,1.066,0.749,0.339,0.596,0.560,���k��,1.7,��
2022/11/04,21:10,0.587,0.843,0.530,1.064,0.747,0.339,0.596,0.561,��,2.2,��
2022/11/04,21:20,0.586,0.844,0.531,1.065,0.750,0.338,0.596,0.560,�쐼,2.3,��
2022/11/04,21:30,0.585,0.842,0.528,1.065,0.748,0.339,0.597,0.562,���쐼,2.0,��
2022/11/04,21:40,0.586,0.843,0.530,1.066,0.751,0.337,0.596,0.561,��,2.0,��
2022/11/04,21:50,0.588,0.843,0.530,1.065,0.748,0.336,0.596,0.561,���k��,2.6,��
2022/11/04,22:00,0.586,0.843,0.529,1.068,0.750,0.339,0.596,0.561,���k��,3.5,��
2022/11/04,22:10,0.587,0.843,0.531,1.062,0.747,0.339,0.597,0.560,�k��,4.0,��
2022/11/04,22:20,0.585,0.844,0.530,1.066,0.750,0.338,0.597,0.560,�k��,4.1,��
2022/11/04,22:30,0.586,0.844,0.528,1.064,0.749,0.339,0.596,0.561,���k��,4.6,��
2022/11/04,22:40,0.585,0.845,0.529,1.065,0.750,0.338,0.597,0.560,���k��,4.4,��
2022/11/04,22:50,0.586,0.843,0.531,1.066,0.749,0.339,0.597,0.561,���k��,3.5,��
2022/11/04,23:00,0.585,0.843,0.530,1.064,0.750,0.338,0.597,0.561,�k��,3.4,��
2022/11/04,23:10,0.585,0.842,0.529,1.064,0.748,0.338,0.597,0.561,���k��,3.6,��
2022/11/04,23:20,0.585,0.843,0.528,1.065,0.749,0.339,0.598,0.559,���k��,3.9,��
2022/11/04,23:30,0.586,0.843,0.532,1.065,0.749,0.338,0.598,0.560,���k��,4.2,��
2022/11/04,23:40,0.585,0.840,0.529,1.064,0.749,0.337,0.596,0.561,���k��,4.5,��
2022/11/04,23:50,0.585,0.845,0.530,1.066,0.747,0.338,0.598,0.561,���k��,4.4,��
